Terug naar catalogus

STARLINK-31391

ActiefCommunicatieVLEO
NORAD 59406·PAYLOAD·🇺🇸 United States

Gelanceerd Apr 5, 2024 vanaf Cape Canaveral Space Force Station

Loading…

Volgende Passages (komende 24 uur)

TLE

VersSource: CelesTrak SupGP

Epoch: Sep 14, 2026, 22:01 UTC

1 59406C 24064J   26257.91784722  .00054000  00000+0  19563-2 0  2573
2 59406  43.0016  67.2409 0001583 276.7464 272.5944 15.27544732    15

Volg STARLINK-31391 in realtime met AllMySat

Download on the App Store